Weather in Vozdvizhenka

Russia / Chelyabinsk Oblast     56°07′16″N   60°47′33″E
temp.,
°C
wind,
m/s
gust,
m/s
humid.,
%
clouds,
%
prec.,
mm/h
press.,
hPa
HPBL,
m
21 april, wed
wed2123:00+1wnw38640 0.0 1031152
02:000wnw23700 0.0 103145
05:000wnw22730 0.0 103227
08:00+4wnw24560 0.0 1032250
11:00+9nw23420 0.0 10321089
14:00+13n11350 0.0 10321372
17:00+13ese11330 0.0 10311561
20:00+8se365621 0.0 1032111
22 april, thu
thu2223:00+6sse226489 0.0 103332
02:00+4sse226526 0.0 103318
05:00+3s2270100 0.0 103429
08:00+6s31156100 0.0 1034346
11:00+11s6935100 0.0 10331118
14:00+11s5939100 0.0 10331195
17:00+10ssw5943100 0.0 10331094
20:00+8ssw235199 0.0 103350
23 april, fri
fri2323:00+7s41057100 0.0 1033385
02:00+5s3966100 0.0 1032256
05:00+5s2371100 0.0 103257
08:00+7ssw2870100 0.1 1032777
11:00+10s6961100 0.1 10311459
14:00+10ssw5863100 0.3 10311443
17:00+12wsw3651100 0.6 10301575
20:00+9sse1166100 0.0 103018
24 april, sat
sat2423:00+8ese1174100 0.0 102829
02:00+8sse2682100 0.3 1027191
05:00+7sse2792100 1.4 1026449
08:00+7sse3790100 1.2 10251004
11:00+7s4789100 2.0 1024984
14:00+7sse4787100 0.6 1023715
17:00+11ese385899 0.6 10201541
20:00+8sse71254100 0.1 1020738
25 april, sun
sun2523:00+4sse41088100 0.1 1020816
02:00+4se3991100 0.3 1018696
05:00+4e387898 0.3 1016290
08:00+5ese4771100 0.0 1015488
11:00+8ese3560100 0.0 1014980
14:00+11se345287 0.0 10131537
17:00+10sw3457100 0.1 10131339
20:00+8wsw51083100 0.3 10141199